Regional Weather Roundup
Issued by NWS Spokane, WA

Home | Current Version | Previous Version | Text Only | Print | Product List | Glossary On
Versions: 1 2 3 4 5 6 7 8 9 10 11 12 13 14 15 16 17 18 19 20 21 22 23 24 25 26 27 28 29 30 31 32 33 34 35 36 37 38 39 40 41 42 43 44 45 46 47 48 49 50
000
NZUS01 KOTX 210610
RWROTX
EASTERN WASHINGTON/NORTHERN IDAHO ROUNDUP
NATIONAL WEATHER SERVICE, SPOKANE WA
1100 PM PDT MON OCT 20 2014

Note: "fair" indicated few or no clouds below 12,000 feet with no
significant weather and/or obstructions to visibility.

...NORTHEAST WASHINGTON AND NORTHERN IDAHO PANHANDLE...

CITY           SKY/WX    TMP DP  RH WIND       PRES   REMARKS
SPOKANE INTL   LGT RAIN  52  44  74 SW23      29.84R
SPOKANE DOWNTO CLOUDY    56  42  59 SW14G20   29.85R
COEUR D ALENE  CLOUDY    55  43  62 W18G28    29.81R
DEER PARK      CLOUDY    55  42  61 SW15G23   29.81R
SANDPOINT      MOCLDY    50  50 100 S7        29.75R

...SOUTHEAST WASHINGTON AND SOUTHERN IDAHO PANHANDLE...

CITY           SKY/WX    TMP DP  RH WIND       PRES   REMARKS
WALLA WALLA    LGT RAIN  54  49  83 SE5       29.86F
PULLMAN/MOSCOW CLOUDY    49  45  86 W10       29.89S
LEWISTON       CLOUDY    57  44  62 NW9       29.86R HAZE
LOWELL           N/A     52  49  89 CALM      29.81R

...COLUMBIA BASIN...

CITY           SKY/WX    TMP DP  RH WIND       PRES   REMARKS
EPHRATA        CLOUDY    51  49  92 CALM      29.80R
MOSES LAKE     CLOUDY    52  49  89 S12       29.81S
TRI CITIES     CLOUDY    55  53  93 SE12      29.85R
HERMISTON      CLOUDY    54  49  83 SE10      29.83F
PENDLETON      LGT RAIN  50  47  89 E8        29.84F

...EAST SLOPES CASCADES...

CITY           SKY/WX    TMP DP  RH WIND       PRES   REMARKS
THE DALLES     MOCLDY    51  49  92 E5        29.86R
YAKIMA         CLOUDY    47  45  93 NW8       29.82S
ELLENSBURG     CLOUDY    48  45  89 NE5       29.80S
WENATCHEE      CLOUDY    52  48  86 E5        29.78S
OMAK           CLOUDY    52  49  89 S6        29.77F

...SOUTHERN BRITISH COLUMBIA...

CITY           SKY/WX    TMP DP  RH WIND       PRES   REMARKS
PENTICTON      CLOUDY    57  48  72 S13G20    29.73R
CRANBROOK      MOCLDY    50  39  66 S12       29.70F

...WESTERN MONTANA...

CITY           SKY/WX    TMP DP  RH WIND       PRES   REMARKS
MISSOULA       MOCLDY    50  39  66 CALM      29.72R

...NEIGHBORING CITIES...

CITY           SKY/WX    TMP DP  RH WIND       PRES   REMARKS
SEATTLE        PTCLDY    55  51  86 S9        29.81R
CALGARY        PTCLDY    54  30  40 S6        29.60S



USA.gov is the U.S. government's official web portal to all federal, state and local government web resources and services.